Погода в Петруни

Погода в Петруни : погода сейчас, прогноз погоды и архив. Всё, что Вы хотите узнать о погоде в Петруни!

Поиск расширенной информации на нашем сайте:

Полезная информация: котокафе

Другие новости

Новости СМИ2

Главная страница сайта

Новости сайта

03.07.2017

Напоминаем, что на нашем специализированном сайте Метеоцентр.Азия вы можете получить высокодетализированные автоматические прогнозы погоды по пунктам России, СНГ и мира в авиационном формате (включающие направление и скорость ветра, видимость, явления погоды, количество и форму облачности, нижнюю и верхнюю границу облачности).

Рекомендуем: Лада с пробегом купить авто с пробегом.

Погода в Петруни - сегодня

Время (UTC), дата Ветер
(°,м/с) 
Видим.   Явления Облачность Т
(°С)
Тd
(°С)
f(%) Тe
(°С)
Pmin
(гПа)
dP
(гПа)
Po
(мм)
O2
(г/м3)
Тmin Tmax R s Состояние
почвы
00 21.07.17 080 (В) 35000 м    6/0 средняя, верхняя 
[Ac As|Ci fib]
+14.4 +12.7 90 +21  1015.4  756  287           
03 21.07.17 140 (ЮВ) 40000 м    8/0 средняя 
[Ac As]
+20.3 +15.4 73 +29  1016.1  0.8  757  281  +14.4         
06 21.07.17 200 (Ю) 40000 м    8/0 средняя, верхняя 
[Ac As|Ci sp]
+24.1 +14.1 54 +31  1016.3  0.3  757  277           
09 21.07.17 210 (ЮЗ) 45000 м    3/1 600 м кучево-дожд., верхняя 
[Cb calv|Ci sp]
+26.4 +11.5 39 +29  1015.6  -0.6  756  276           
12 21.07.17 180 (Ю) 40000 м  {гроза}  5/3 600 м кучево-дожд., средняя, верхняя 
[Cb cap|Ac cuf|Ci sp]
+27.3 +11.9 38 +31  1015.2  -0.3  756  275           
15 21.07.17 270 (З) 40000 м    5/3 600 м кучево-дожд., средняя, верхняя 
[Cb cap|Ac lent|Ci sp]
+24.9 +14.5 52 +33  1015.4  0.1  756  276    +27.9       
18 21.07.17 020 (С) 3800 м  гроза, ливневой дождь  9/8 900 м кучево-дожд., средняя 
[Cb cap|Ac cast]
+17.7 +16 90 +29  1016.2  0.6  757  283           
21 21.07.17 110 (В) 30000 м  {гроза, ливн. осадки}  1/0 средняя 
[Ac As]
+15.1 +14.2 94 +23  1016.6  0.3  757  286           
00 22.07.17 040 (СВ) 26000 м  {гроза, ливн. осадки}  4/0 средняя 
[Ac As]
+12.3 +11.3 94 +17  1016.6  757  290           
03 22.07.17 080 (В) 35000 м    ясно 
+20 +14.9 72 +28  1016.5  757  281  +11       
06 22.07.17 050 (СВ) 40000 м    ясно 
+25.8 +14.4 49 +33  1016.3  757  276           
09 22.07.17 090 (В) 50000 м    3/3 600 м кучево-дожд. 
[Cb calv]
+29 +11.8 35 +32  1015.2  -1  756  273           
12 22.07.17 120 (ЮВ) 45000 м    6/3 600 м кучево-дожд., средняя, верхняя 
[Cb cap|Ac cuf|Ci fib]
+28.7 +11.1 34 +31  1014.8  -0.4  756  274           
15 22.07.17 090 (В) 7-12{14}  30000 м  в посл. час гроза  8/3 600 м кучево-дожд., средняя, верхняя 
[Cb cap|Ac cuf|Ci sp]
+23.1 +11.1 47 +26  1015.2  0.2  756  279    +29.5       
18 22.07.17 020 (С) 3{13}  35000 м  {гроза}  9/0 средняя, верхняя 
[Ac As|Cs]
+18.8 +13.5 71 +25  1015.3  756  282           
21 22.07.17 030 (СВ) 30000 м    4/0 средняя 
[Ac As]
+13.6 +12.7 94 +19  1015.4  756  288           
00 23.07.17 030 (СВ) 30000 м    5/0 средняя 
[Ac As]
+11.5 +10.7 95 +14  1015.4  756  290           
03 23.07.17 040 (СВ) 35000 м    9/0 средняя, верхняя 
[Ac As|Ci fib]
+17.6 +15.4 87 +27  1015.4  0.1  756  283  +11.1         
06 23.07.17 070 (В) 26000 м    6/0 средняя 
[Ac cast]
+25.2 +14.9 53 +34  1014.6  -0.6  756  276           
09 23.07.17 100 (В) 24000 м    1/1 600 м 
[Cu med, cong]
+28.8 +12.9 38 +34  1013.6  -0.9  755  273           
12 23.07.17 060 (СВ) 27000 м    1/1 600 м кучево-дожд. 
[Cb calv]
+29.5 +9.5 29 +30  1012.2  -1.4  754  273           
09 25.07.17 050 (СВ) 30000 м    4/0 верхняя 
[Cu med, cong|Ci sp]
+26.9 +13.5 44 +33  1009.3  -0.4  752  273           
12 25.07.17 040 (СВ) 3{10}  26000 м  в посл. час гроза{ливн. осадки}  8/3 600 м кучево-дожд., средняя, верхняя 
[Cb cap|Ac cuf|Ci sp]
+22.1 +15.2 65 +31  1009.4  752  277           
15 25.07.17 020 (С) 35000 м    3/0 средняя, верхняя 
[Ac lent|Ci fib]
+24.8 +14.4 52 +32  1009.1  -0.3  752  275    +27.4  0.4     
18 25.07.17 060 (СВ) 30000 м    1/0 средняя 
[Ac As]
+16.7 +15.3 91 +27  1009.6  0.4  752  282           
Время (UTC), дата Ветер
(°,м/с) 
Видим.   Явления Облачность Т
(°С)
Тd
(°С)
f(%) Тe
(°С)
Pmin
(гПа)
dP
(гПа)
Po
(мм)
O2
(г/м3)
Тmin Tmax R s Состояние
почвы

Для получения пояснительной информации подведите курсор к названию столбца.

ПОГОДА в Петруни - архив

Всё, что Вы хотите узнать о погоде в Петруни - удобно и подробно!

Выберите нужную дату (начиная с 1 января 2015* года) и нажмите кнопку "Найти".
Будут отображены архивные сводки погоды по пункту Петрунь, начиная с указанной даты.


Отображать данные в формате CSV (для использования в таблицах Excel)


Внимание! Наш архив погоды предназначен исключительно для личного некоммерческого использования в познавательных целях. Если Вам необходимы официальные справки о состоянии погоды (для производственных, юридических, коммерческих и т.п. целей), обращайтесь в органы Росгидромета.

*Примечание: данная дата относится к архиву по метеостанциям СССР (Россия, СНГ, Балтия).
Архив по метеостанциям Зарубежной Европы и Азии (кроме Китая) хранится 10 дней, по другим регионам земного шара (Китай, Африка, Америка, Австралия, Океания) - 1 день.

Петрунь - район местоположения метеостанции


Название, широта, долгота, высота метеостанции:
Петрунь 66.5°ш. 60.8°д. 58 м над ур. моря [Российская Федерация]

Дополнительная информация

В oтличие oт бoльшинства пoгoдных сайтoв мы публикуем пoдрoбную метеoинфoрмацию в детальнoм прoфессиoнальнoм фoрмате.

Характеристики температуры и влажнoсти вoздуха измеряются на высoте 2 м в тени вдали oт зданий и деревьев.
Скoрoсть ветра измеряется на высoте 10 м (на урoвне рoста челoвека скoрoсть ветра ниже в 1.5-2 раза). Если метеoстанция нахoдится в гoрoде или в лесу, тo скoрoсть ветра занижена на 2-4 м/с пo сравнению с oткрытым местoм. Скoрoсть ветра над акватoриями крупных рек и oзёр, а также на вершинах хoлмoв на 2-5 м/с выше, чем в oбычных услoвиях.
Атмoсфернoе давление в разных тoчках местнoсти мoжет значительнo oтличаться oт давления на метеoстанции, в зависимoсти oт услoвий рельефа (при пoдъёме на 10 м давление пoнижается примернo на 1 мм рт.ст.).